Time,TemperatureF,DewpointF,PressureIn,WindDirection,WindDirectionDegrees,WindSpeedMPH,WindSpeedGustMPH,Humidity,HourlyPrecipIn,Conditions,Clouds,dailyrainin,SoftwareType,DateUTC
2013-08-20 00:00:00,74.0,-99.9,-100.00,North,-999,4.0,13.0,59,-99.99,,,-99.99,,2013-08-20 06:00:00,
2013-08-20 00:22:00,-999.0,-99.9,-100.00,North,-999,4.0,13.0,59,-99.99,,,-99.99,,2013-08-20 06:22:00,
2013-08-20 00:42:00,74.0,-99.9,-100.00,North,-999,4.0,13.0,59,-99.99,,,-99.99,,2013-08-20 06:42:00,
2013-08-20 00:52:00,74.0,-99.9,-100.00,North,-999,4.0,13.0,59,-99.99,,,-99.99,,2013-08-20 06:52:00,
2013-08-20 01:00:00,72.0,-99.9,-100.00,North,-999,4.0,10.0,70,-99.99,,,-99.99,,2013-08-20 07:00:00,
2013-08-20 01:22:00,-999.0,-99.9,-100.00,North,-999,4.0,10.0,70,-99.99,,,-99.99,,2013-08-20 07:22:00,
2013-08-20 01:42:00,72.0,-99.9,-100.00,North,-999,4.0,10.0,70,-99.99,,,-99.99,,2013-08-20 07:42:00,
2013-08-20 01:52:00,72.0,-99.9,-100.00,North,-999,4.0,10.0,70,-99.99,,,-99.99,,2013-08-20 07:52:00,
2013-08-20 02:00:00,72.0,-99.9,-100.00,North,-999,3.0,6.0,75,-99.99,,,-99.99,,2013-08-20 08:00:00,
2013-08-20 02:22:00,-999.0,-99.9,-100.00,North,-999,3.0,6.0,75,-99.99,,,-99.99,,2013-08-20 08:22:00,
2013-08-20 02:42:00,72.0,-99.9,-100.00,North,-999,3.0,6.0,75,-99.99,,,-99.99,,2013-08-20 08:42:00,
2013-08-20 02:52:00,72.0,-99.9,-100.00,North,-999,3.0,6.0,75,-99.99,,,-99.99,,2013-08-20 08:52:00,
2013-08-20 03:00:00,71.0,-99.9,-100.00,North,-999,1.0,8.0,72,-99.99,,,-99.99,,2013-08-20 09:00:00,
2013-08-20 03:21:00,-999.0,-99.9,-100.00,North,-999,1.0,8.0,72,-99.99,,,-99.99,,2013-08-20 09:21:00,
2013-08-20 03:42:00,71.0,-99.9,-100.00,North,-999,1.0,8.0,72,-99.99,,,-99.99,,2013-08-20 09:42:00,
2013-08-20 03:53:00,71.0,-99.9,-100.00,North,-999,1.0,8.0,72,-99.99,,,-99.99,,2013-08-20 09:53:00,
2013-08-20 04:00:00,69.0,-99.9,-100.00,North,-999,2.0,5.0,74,-99.99,,,-99.99,,2013-08-20 10:00:00,
2013-08-20 04:23:00,-999.0,-99.9,-100.00,North,-999,2.0,5.0,74,-99.99,,,-99.99,,2013-08-20 10:23:00,
2013-08-20 04:43:00,69.0,-99.9,-100.00,North,-999,2.0,5.0,74,-99.99,,,-99.99,,2013-08-20 10:43:00,
2013-08-20 04:52:00,69.0,-99.9,-100.00,North,-999,2.0,5.0,74,-99.99,,,-99.99,,2013-08-20 10:52:00,
2013-08-20 05:00:00,68.0,-99.9,-100.00,North,-999,4.0,8.0,76,-99.99,,,-99.99,,2013-08-20 11:00:00,
2013-08-20 05:22:00,-999.0,-99.9,-100.00,North,-999,4.0,8.0,76,-99.99,,,-99.99,,2013-08-20 11:22:00,
2013-08-20 05:42:00,68.0,-99.9,-100.00,North,-999,4.0,8.0,76,-99.99,,,-99.99,,2013-08-20 11:42:00,
2013-08-20 05:52:00,68.0,-99.9,-100.00,North,-999,4.0,8.0,76,-99.99,,,-99.99,,2013-08-20 11:52:00,
2013-08-20 06:00:00,66.0,-99.9,-100.00,North,-999,4.0,9.0,83,-99.99,,,-99.99,,2013-08-20 12:00:00,
2013-08-20 06:22:00,-999.0,-99.9,-100.00,North,-999,4.0,9.0,83,-99.99,,,-99.99,,2013-08-20 12:22:00,
2013-08-20 06:42:00,66.0,-99.9,-100.00,North,-999,4.0,9.0,83,-99.99,,,-99.99,,2013-08-20 12:42:00,
2013-08-20 06:52:00,66.0,-99.9,-100.00,North,-999,4.0,9.0,83,-99.99,,,-99.99,,2013-08-20 12:52:00,
2013-08-20 07:00:00,67.0,-99.9,-100.00,North,-999,1.0,4.0,89,-99.99,,,-99.99,,2013-08-20 13:00:00,
2013-08-20 07:22:00,-999.0,-99.9,-100.00,North,-999,1.0,4.0,89,-99.99,,,-99.99,,2013-08-20 13:22:00,
2013-08-20 07:42:00,67.0,-99.9,-100.00,North,-999,1.0,4.0,89,-99.99,,,-99.99,,2013-08-20 13:42:00,
2013-08-20 07:52:00,67.0,-99.9,-100.00,North,-999,1.0,4.0,89,-99.99,,,-99.99,,2013-08-20 13:52:00,
2013-08-20 08:00:00,68.0,-99.9,-100.00,North,-999,2.0,5.0,84,-99.99,,,-99.99,,2013-08-20 14:00:00,
2013-08-20 08:22:00,-999.0,-99.9,-100.00,North,-999,2.0,5.0,84,-99.99,,,-99.99,,2013-08-20 14:22:00,
2013-08-20 08:42:00,68.0,-99.9,-100.00,North,-999,2.0,5.0,84,-99.99,,,-99.99,,2013-08-20 14:42:00,
2013-08-20 08:52:00,68.0,-99.9,-100.00,North,-999,2.0,5.0,84,-99.99,,,-99.99,,2013-08-20 14:52:00,
2013-08-20 09:00:00,71.0,-99.9,-100.00,North,-999,3.0,5.0,74,-99.99,,,-99.99,,2013-08-20 15:00:00,
2013-08-20 09:22:00,-999.0,-99.9,-100.00,North,-999,3.0,5.0,74,-99.99,,,-99.99,,2013-08-20 15:22:00,
2013-08-20 09:43:00,71.0,-99.9,-100.00,North,-999,3.0,5.0,74,-99.99,,,-99.99,,2013-08-20 15:43:00,
2013-08-20 09:54:00,71.0,-99.9,-100.00,North,-999,3.0,5.0,74,-99.99,,,-99.99,,2013-08-20 15:54:00,
2013-08-20 10:00:00,75.0,-99.9,-100.00,North,-999,2.0,4.0,62,-99.99,,,-99.99,,2013-08-20 16:00:00,
2013-08-20 10:31:00,-999.0,-99.9,-100.00,North,-999,2.0,4.0,62,-99.99,,,-99.99,,2013-08-20 16:31:00,
2013-08-20 10:42:00,75.0,-99.9,-100.00,North,-999,2.0,4.0,62,-99.99,,,-99.99,,2013-08-20 16:42:00,
2013-08-20 10:53:00,75.0,-99.9,-100.00,North,-999,2.0,4.0,62,-99.99,,,-99.99,,2013-08-20 16:53:00,
2013-08-20 11:00:00,77.0,-99.9,-100.00,North,-999,3.0,4.0,54,-99.99,,,-99.99,,2013-08-20 17:00:00,
2013-08-20 11:24:00,-999.0,-99.9,-100.00,North,-999,3.0,4.0,54,-99.99,,,-99.99,,2013-08-20 17:24:00,
2013-08-20 11:43:00,77.0,-99.9,-100.00,North,-999,3.0,4.0,54,-99.99,,,-99.99,,2013-08-20 17:43:00,
2013-08-20 11:52:00,77.0,-99.9,-100.00,North,-999,3.0,4.0,54,-99.99,,,-99.99,,2013-08-20 17:52:00,
2013-08-20 12:00:00,80.0,-99.9,-100.00,North,-999,2.0,5.0,51,-99.99,,,-99.99,,2013-08-20 18:00:00,
2013-08-20 12:22:00,-999.0,-99.9,-100.00,North,-999,2.0,5.0,51,-99.99,,,-99.99,,2013-08-20 18:22:00,
2013-08-20 12:43:00,80.0,-99.9,-100.00,North,-999,2.0,5.0,51,-99.99,,,-99.99,,2013-08-20 18:43:00,
2013-08-20 12:52:00,80.0,-99.9,-100.00,North,-999,2.0,5.0,51,-99.99,,,-99.99,,2013-08-20 18:52:00,
2013-08-20 13:00:00,83.0,-99.9,-100.00,North,-999,1.0,4.0,36,-99.99,,,-99.99,,2013-08-20 19:00:00,
2013-08-20 13:22:00,-999.0,-99.9,-100.00,North,-999,1.0,4.0,36,-99.99,,,-99.99,,2013-08-20 19:22:00,
2013-08-20 13:42:00,83.0,-99.9,-100.00,North,-999,1.0,4.0,36,-99.99,,,-99.99,,2013-08-20 19:42:00,
2013-08-20 13:53:00,83.0,-99.9,-100.00,North,-999,1.0,4.0,36,-99.99,,,-99.99,,2013-08-20 19:53:00,
2013-08-20 14:00:00,87.0,-99.9,-100.00,North,-999,2.0,6.0,33,-99.99,,,-99.99,,2013-08-20 20:00:00,
2013-08-20 14:22:00,-999.0,-99.9,-100.00,North,-999,2.0,6.0,33,-99.99,,,-99.99,,2013-08-20 20:22:00,
2013-08-20 14:42:00,87.0,-99.9,-100.00,North,-999,2.0,6.0,33,-99.99,,,-99.99,,2013-08-20 20:42:00,
2013-08-20 14:52:00,87.0,-99.9,-100.00,North,-999,2.0,6.0,33,-99.99,,,-99.99,,2013-08-20 20:52:00,
2013-08-20 15:00:00,88.0,-99.9,-100.00,North,-999,4.0,7.0,29,-99.99,,,-99.99,,2013-08-20 21:00:00,
2013-08-20 15:22:00,-999.0,-99.9,-100.00,North,-999,4.0,7.0,29,-99.99,,,-99.99,,2013-08-20 21:22:00,
2013-08-20 15:44:00,88.0,-99.9,-100.00,North,-999,4.0,7.0,29,-99.99,,,-99.99,,2013-08-20 21:44:00,
2013-08-20 15:55:00,88.0,-99.9,-100.00,North,-999,4.0,7.0,29,-99.99,,,-99.99,,2013-08-20 21:55:00,
2013-08-20 16:00:00,88.0,-99.9,-100.00,North,-999,4.0,10.0,29,-99.99,,,-99.99,,2013-08-20 22:00:00,
2013-08-20 16:24:00,-999.0,-99.9,-100.00,North,-999,4.0,10.0,29,-99.99,,,-99.99,,2013-08-20 22:24:00,
2013-08-20 16:42:00,88.0,-99.9,-100.00,North,-999,4.0,10.0,29,-99.99,,,-99.99,,2013-08-20 22:42:00,
2013-08-20 16:54:00,88.0,-99.9,-100.00,North,-999,4.0,10.0,29,-99.99,,,-99.99,,2013-08-20 22:54:00,
2013-08-20 17:00:00,89.0,-99.9,-100.00,North,-999,4.0,8.0,28,-99.99,,,-99.99,,2013-08-20 23:00:00,
2013-08-20 17:23:00,-999.0,-99.9,-100.00,North,-999,4.0,8.0,28,-99.99,,,-99.99,,2013-08-20 23:23:00,
2013-08-20 17:43:00,89.0,-99.9,-100.00,North,-999,4.0,8.0,28,-99.99,,,-99.99,,2013-08-20 23:43:00,
2013-08-20 17:53:00,89.0,-99.9,-100.00,North,-999,4.0,8.0,28,-99.99,,,-99.99,,2013-08-20 23:53:00,
2013-08-20 18:00:00,88.0,-99.9,-100.00,North,-999,4.0,8.0,27,-99.99,,,-99.99,,2013-08-21 00:00:00,
2013-08-20 18:23:00,-999.0,-99.9,-100.00,North,-999,4.0,8.0,27,-99.99,,,-99.99,,2013-08-21 00:23:00,
2013-08-20 18:42:00,88.0,-99.9,-100.00,North,-999,4.0,8.0,27,-99.99,,,-99.99,,2013-08-21 00:42:00,
2013-08-20 18:52:00,88.0,-99.9,-100.00,North,-999,4.0,8.0,27,-99.99,,,-99.99,,2013-08-21 00:52:00,
2013-08-20 19:00:00,82.0,-99.9,-100.00,North,-999,3.0,16.0,35,-99.99,,,-99.99,,2013-08-21 01:00:00,
2013-08-20 19:22:00,-999.0,-99.9,-100.00,North,-999,3.0,16.0,35,-99.99,,,-99.99,,2013-08-21 01:22:00,
2013-08-20 19:42:00,82.0,-99.9,-100.00,North,-999,3.0,16.0,35,-99.99,,,-99.99,,2013-08-21 01:42:00,
2013-08-20 19:52:00,82.0,-99.9,-100.00,North,-999,3.0,16.0,35,-99.99,,,-99.99,,2013-08-21 01:52:00,
2013-08-20 20:00:00,76.0,-99.9,-100.00,North,-999,9.0,15.0,52,-99.99,,,-99.99,,2013-08-21 02:00:00,
2013-08-20 20:22:00,-999.0,-99.9,-100.00,North,-999,9.0,15.0,52,-99.99,,,-99.99,,2013-08-21 02:22:00,
2013-08-20 20:52:00,76.0,-99.9,-100.00,North,-999,9.0,15.0,52,-99.99,,,-99.99,,2013-08-21 02:52:00,
2013-08-20 21:00:00,74.0,-99.9,-100.00,North,-999,6.0,12.0,56,-99.99,,,-99.99,,2013-08-21 03:00:00,
2013-08-20 21:44:00,74.0,-99.9,-100.00,North,-999,6.0,12.0,56,-99.99,,,-99.99,,2013-08-21 03:44:00,
2013-08-20 21:55:00,74.0,-99.9,-100.00,North,-999,6.0,12.0,56,-99.99,,,-99.99,,2013-08-21 03:55:00,
2013-08-20 22:00:00,75.0,-99.9,-100.00,North,-999,0.0,3.0,61,-99.99,,,-99.99,,2013-08-21 04:00:00,
2013-08-20 22:24:00,-999.0,-99.9,-100.00,North,-999,0.0,3.0,61,-99.99,,,-99.99,,2013-08-21 04:24:00,
2013-08-20 22:44:00,75.0,-99.9,-100.00,North,-999,0.0,3.0,61,-99.99,,,-99.99,,2013-08-21 04:44:00,
2013-08-20 22:54:00,75.0,-99.9,-100.00,North,-999,0.0,3.0,61,-99.99,,,-99.99,,2013-08-21 04:54:00,
2013-08-20 23:00:00,73.0,-99.9,-100.00,North,-999,0.0,2.0,71,-99.99,,,-99.99,,2013-08-21 05:00:00,
2013-08-20 23:23:00,-999.0,-99.9,-100.00,North,-999,0.0,2.0,71,-99.99,,,-99.99,,2013-08-21 05:23:00,
2013-08-20 23:43:00,73.0,-99.9,-100.00,North,-999,0.0,2.0,71,-99.99,,,-99.99,,2013-08-21 05:43:00,
2013-08-20 23:52:00,73.0,-99.9,-100.00,North,-999,0.0,2.0,71,-99.99,,,-99.99,,2013-08-21 05:52:00,